Regional Weather Roundup
Issued by NWS

Home | Current Version | Previous Version | Text Only | Print | Product List | Glossary Off
Versions: 1 2 3 4 5 6 7 8 9 10 11 12 13 14 15 16 17 18 19 20 21 22 23 24 25 26 27 28 29 30 31 32 33 34 35 36 37 38 39 40 41 42 43 44 45 46 47 48 49 50

000
ASUS43 KFSD 251810
RWRSD

WEATHER ROUNDUP FOR SOUTH DAKOTA
NATIONAL WEATHER SERVICE SIOUX FALLS SD
100 PM CDT TUE APR 25 2017

NOTE: "FAIR" INDICATES FEW OR NO CLOUDS BELOW 12,000 FEET WITH NO
SIGNIFICANT WEATHER AND/OR OBSTRUCTIONS TO VISIBILITY.


SDZ001>005-009-010-012>017-251900-
NORTHWEST AND NORTH CENTRAL SOUTH DAKOTA

CITY           SKY/WX    TMP DP  RH WIND       PRES   REMARKS
BUFFALO          N/A     28  26  92 NE21      29.75S WCI  15
FAITH            N/A     28  28 100 N21       29.78R WCI  15
MOBRIDGE       CLOUDY    34  26  72 N18       29.78R WCI  23
$$

SDZ012>016-024>037-041>051-057-063-072>074-251900-
SOUTHWEST AND SOUTH CENTRAL SOUTH DAKOTA

CITY           SKY/WX    TMP DP  RH WIND       PRES   REMARKS
RAPID CTY ARPT LGT SNOW  30  28  92 N17       29.75S VSB 3/4 WCI  18
PIERRE         CLOUDY    35  28  75 N20G28    29.72F WCI  24
CUSTER         SNOW      26  21  81 NE12      29.64R VSB 1/2 WCI  16
ELLSWORTH AFB  MIX PCPN  30  30 100 N16       29.76  FOG     WCI  19
PHILIP         SNOW      32  31  96 N14       29.76R VSB 1/2 WCI  22
PINE RIDGE     MIX PCPN  34  32  92 NE15      29.71R WCI  24
SPEARFISH      LGT SNOW  27  27 100 NE12      29.78R WCI  16
WINNER         CLOUDY    37  31  78 N14G23    29.69R
$$

SDZ004>011-016>023-039-040-251900-
NORTHEAST SOUTH DAKOTA

CITY           SKY/WX    TMP DP  RH WIND       PRES   REMARKS
ABERDEEN       CLOUDY    35  28  75 N23G31    29.74F WCI  23
WATERTOWN      CLOUDY    35  32  88 N21G28    29.64F WCI  24
BROOKINGS      CLOUDY    38  35  89 N20       29.60F
SISSETON         N/A     36  33  89 N24G31    29.68F
$$

SDZ017-020-022-023-036>040-048>070-251900-
SOUTHEAST SOUTH DAKOTA

CITY           SKY/WX    TMP DP  RH WIND       PRES   REMARKS
SIOUX FALLS    LGT RAIN  41  39  93 N14       29.58F
HURON          CLOUDY    38  33  82 N22G28    29.66F
CHAMBERLAIN    CLOUDY    39  34  81 NW17G25   29.67S
MITCHELL       CLOUDY    42  34  73 N24       29.64F
YANKTON        CLOUDY    41  37  87 N16       29.58F
$$

ABBREVIATIONS USED IN REMARKS
   TC - TEMPERATURE IN CELSIUS
  WCI - WIND CHILL INDEX
   HX - HEAT INDEX
  VSB - VISIBILITY





USA.gov is the U.S. government's official web portal to all federal, state and local government web resources and services.